Wind_Speed
7 9 10 11 13 14 15 16 17 18 20 21 22 24 26 28 29 30 30 31 31 32 32 32 32 32 32 33 34 34 35 35 35 36 38 39 39 39 40 41 41 42 42
9 11 12 13 14 15 16 17 19 20 22 23 25 27 28 29 31 32 33 33 33 34 34 34 34 34 34 35 35 36 36 36 35 36 38 40 40 41 41 41 42 42 43
12 13 14 15 16 17 18 19 21 23 25 26 28 29 30 31 33 34 35 35 35 35 35 35 35 36 36 36 36 36 36 36 36 35 37 39 40 41 42 42 42 42 43
14 15 15 16 17 19 20 22 23 25 27 29 30 31 32 33 34 36 36 37 37 37 37 37 37 37 36 36 35 35 35 35 35 35 36 37 39 40 41 42 43 43 44
16 17 17 19 20 21 22 24 25 27 28 30 32 32 33 34 36 37 38 38 38 38 39 38 38 37 37 36 35 35 35 35 35 35 35 36 37 39 40 41 42 43 44
18 19 20 21 22 23 25 26 28 30 31 32 33 34 35 36 38 38 38 39 39 40 39 39 38 38 37 36 36 35 35 35 35 35 34 35 36 38 40 41 42 43 44
20 21 22 23 24 25 27 28 30 31 32 33 35 36 37 37 38 39 40 40 41 41 40 39 38 38 37 37 36 35 35 34 34 34 34 34 35 36 38 39 41 42 43
23 23 24 25 26 27 29 30 32 33 34 36 37 37 37 37 38 40 41 41 41 41 41 39 38 38 37 37 35 34 34 34 34 33 33 33 34 36 37 38 39 40 41
25 26 26 28 29 30 32 33 34 35 37 38 38 38 38 39 40 41 42 42 41 41 41 40 39 38 38 36 35 33 33 33 33 33 32 32 32 34 36 37 38 39 40
28 29 30 31 32 33 34 35 36 38 39 39 39 40 40 41 42 42 42 42 42 41 41 41 39 38 37 36 34 33 33 33 32 32 33 33 33 34 35 37 38 39 39
30 31 33 34 35 36 36 37 38 39 41 41 41 41 42 43 43 43 44 43 42 41 41 40 39 38 36 35 34 33 32 32 32 32 32 33 34 34 35 36 38 39 39
33 35 36 36 37 38 39 40 40 41 42 42 42 43 43 44 45 44 44 44 43 42 40 39 38 37 35 34 33 33 32 31 31 31 31 32 33 34 34 36 37 38 40
36 38 39 39 40 40 42 42 43 43 43 44 44 44 45 45 46 45 45 44 43 41 40 38 37 36 35 33 32 31 30 30 30 30 30 31 32 33 33 34 36 38 40
39 40 41 41 42 43 44 45 45 45 46 46 46 46 47 47 47 46 45 44 43 41 40 38 37 36 34 33 31 30 30 29 29 29 29 30 30 31 32 33 34 36 38
41 42 43 44 45 45 46 47 47 47 48 48 48 48 48 48 47 47 46 44 43 41 39 37 36 35 34 32 31 30 29 28 28 28 28 28 29 29 30 31 32 33 35
44 45 46 46 47 48 49 49 49 49 49 50 49 49 49 49 48 47 45 44 43 41 38 37 36 34 33 31 30 29 28 28 28 27 27 28 28 29 29 30 31 31 33
46 47 48 49 50 50 51 51 51 51 51 51 51 51 50 49 48 47 45 44 42 40 38 36 35 33 31 30 29 28 28 28 27 27 27 27 27 27 28 28 29 30 31
48 49 50 51 52 53 53 54 54 53 53 52 52 51 50 49 48 46 45 43 41 39 37 35 34 32 31 29 28 27 27 27 27 26 25 25 26 26 26 26 27 28 30
51 52 53 53 54 55 55 56 56 55 55 54 52 51 50 49 47 45 43 41 39 37 36 34 32 31 30 29 27 27 26 26 25 24 24 24 24 24 24 24 25 27 28
53 55 56 56 57 57 57 57 57 57 56 55 54 52 50 49 47 44 42 40 37 35 34 32 31 30 28 27 26 26 25 25 24 23 23 22 22 21 21 22 23 25 27
56 57 57 58 58 59 59 59 59 58 57 56 54 52 50 48 46 42 40 38 36 34 32 31 29 28 27 26 25 24 24 24 23 22 22 21 20 19 19 19 20 22 25
57 58 58 58 59 59 59 59 59 57 55 54 52 50 48 46 43 40 37 36 34 32 31 29 28 26 26 25 24 23 23 22 22 21 20 20 19 18 18 18 19 21 23
57 58 58 59 59 59 59 58 57 55 53 51 49 46 43 41 39 36 34 33 31 30 28 26 25 24 24 23 23 22 22 21 20 20 19 18 17 17 16 17 18 19 22
57 57 57 57 57 56 55 54 52 50 48 46 43 40 38 36 33 31 29 28 27 26 24 23 23 23 23 22 21 21 21 20 19 19 18 17 16 16 15 15 17 19 21
54 54 53 53 52 50 48 46 44 42 41 38 36 33 31 29 28 26 24 23 22 21 21 22 22 22 22 21 20 20 20 19 18 17 16 15 15 15 15 16 17 18 20
50 49 47 46 44 43 41 38 36 35 33 31 29 27 26 25 24 22 21 19 19 19 20 21 21 20 19 18 18 18 18 18 16 15 14 14 13 14 15 16 17 19 20
Wind_Direction
321 320 322 325 326 326 327 329 330 330 330 329 327 326 325 325 325 324 321 319 317 316 313 310 307 303 298 294 289 285 280 274 269 265 263 260 257 254 251 248 245 243 242
315 315 317 318 319 320 321 322 322 323 324 323 322 322 323 323 324 324 322 320 318 316 314 312 308 305 301 297 291 286 282 277 272 266 263 260 257 254 251 248 245 243 241
308 308 310 312 313 315 316 317 317 317 318 318 318 319 320 320 321 322 321 319 318 317 315 313 310 307 303 299 293 288 283 279 274 269 264 261 258 254 251 248 245 243 240
299 300 302 306 309 310 311 314 315 314 315 316 316 316 317 317 318 320 320 319 318 317 316 314 311 308 304 301 296 290 285 280 276 270 265 261 258 255 251 248 245 243 240
294 295 297 301 305 306 308 310 312 313 314 315 314 314 314 315 316 318 319 319 318 317 316 314 312 309 305 301 297 292 287 282 277 273 268 263 259 256 252 248 245 243 241
290 293 296 299 302 304 306 308 310 312 313 314 314 313 313 313 314 315 317 318 317 317 315 314 312 309 305 301 297 293 288 283 279 275 271 265 260 257 253 250 246 243 241
290 292 295 298 300 302 304 306 309 311 312 313 313 313 313 313 314 315 316 316 316 316 314 313 311 308 305 302 298 294 289 285 280 275 271 267 262 259 255 252 248 244 241
289 291 294 297 299 301 303 304 306 308 310 312 313 312 312 312 313 315 315 315 315 315 314 312 310 308 305 302 298 294 291 287 282 277 272 268 264 260 257 253 249 245 241
288 290 292 295 297 299 301 303 304 306 308 309 311 311 312 312 313 314 314 315 315 314 313 312 310 308 305 302 298 294 291 288 284 279 274 270 266 262 258 254 250 247 242
288 289 290 293 295 298 299 301 303 305 306 308 309 310 311 311 312 314 314 314 314 313 312 310 308 306 304 301 298 295 291 288 284 279 274 271 268 264 261 257 252 248 243
289 290 291 292 294 296 298 300 303 304 305 307 308 309 310 311 311 312 313 313 313 312 310 308 307 305 303 301 298 296 292 289 284 279 275 272 268 266 263 258 253 248 243
288 290 291 292 294 296 298 300 301 303 304 305 306 307 309 310 311 311 311 311 311 311 310 307 305 304 303 301 298 296 293 289 285 280 275 272 269 267 264 260 255 249 243
289 290 291 293 295 297 298 299 300 302 303 304 305 306 307 308 309 308 308 308 309 310 308 306 305 303 302 300 298 296 293 291 287 281 276 273 270 268 265 260 255 250 243
290 291 291 293 294 296 297 298 299 300 301 302 303 304 305 306 306 306 306 307 308 308 307 305 303 302 301 300 298 295 293 292 289 284 278 275 273 270 267 261 255 249 243
291 291 291 292 294 295 296 297 298 298 299 300 300 301 302 303 304 304 305 305 306 306 305 303 302 302 300 299 297 295 293 293 290 285 280 277 275 273 268 261 255 250 242
290 290 290 292 293 293 294 295 296 296 297 298 298 299 300 301 302 303 303 303 303 304 303 302 301 301 299 298 297 296 295 294 291 286 282 279 277 274 269 262 255 248 242
289 289 290 291 292 292 293 294 294 294 295 295 296 297 297 298 299 300 300 300 300 300 300 300 300 299 298 298 296 295 295 295 292 287 282 280 278 275 269 262 254 246 240
288 289 289 289 290 291 292 292 292 293 293 293 293 294 294 295 296 296 296 296 296 296 297 298 297 297 297 297 296 295 296 295 292 288 283 281 279 275 269 261 252 243 236
289 289 289 289 290 290 290 291 291 291 292 291 291 291 291 291 292 293 293 292 292 292 293 296 296 295 294 294 294 294 296 295 292 288 285 283 281 275 267 258 249 240 234
290 290 290 290 290 290 290 290 290 290 290 290 290 290 289 288 288 289 289 289 288 288 290 292 293 294 293 293 293 292 295 295 292 288 285 283 282 275 265 255 246 238 231
290 290 290 290 290 290 290 289 289 289 289 288 288 287 287 286 285 283 282 283 283 283 286 288 290 292 292 292 292 292 295 295 291 287 285 281 279 274 264 255 245 236 228
291 290 290 290 290 289 289 289 288 288 287 287 286 285 284 283 282 279 278 277 277 280 283 284 285 288 291 291 291 293 295 293 290 288 285 280 274 269 261 252 243 233 224
291 291 291 290 290 289 289 288 288 287 286 285 284 283 281 280 279 276 274 274 274 275 278 281 283 287 290 289 290 293 294 292 291 287 283 278 271 264 258 249 239 229 222
292 292 292 291 290 289 289 288 287 286 285 283 281 279 278 277 274 270 270 272 271 271 273 279 283 287 289 289 289 292 293 293 290 286 280 274 266 257 251 243 231 223 219
295 294 293 293 292 291 290 289 288 286 285 281 278 276 274 270 266 265 265 265 267 271 274 279 283 286 289 290 289 291 293 293 290 284 276 270 261 250 244 236 226 220 216
298 297 296 296 294 294 292 289 288 287 284 279 275 271 267 263 260 258 259 261 264 270 276 280 283 286 289 289 289 290 292 291 289 283 273 265 256 245 238 232 225 218 215
Height
5852 5850 5849 5847 5845 5843 5841 5839 5836 5834 5831 5828 5825 5821 5818 5814 5811 5807 5803 5799 5794 5791 5787 5783 5779 5776 5773 5770 5768 5766 5764 5764 5764 5763 5762 5763 5764 5766 5768 5770 5773 5776 5779
5848 5847 5846 5844 5842 5840 5838 5835 5833 5830 5827 5824 5820 5817 5813 5809 5805 5800 5796 5791 5787 5783 5779 5774 5770 5767 5763 5760 5757 5754 5752 5751 5752 5752 5750 5750 5752 5753 5755 5758 5761 5764 5767
5845 5843 5842 5840 5838 5836 5833 5831 5828 5825 5822 5818 5815 5811 5807 5803 5798 5794 5789 5784 5779 5775 5770 5765 5761 5757 5753 5749 5746 5743 5741 5739 5739 5739 5739 5738 5739 5740 5743 5745 5748 5752 5755
5841 5840 5838 5836 5834 5831 5829 5826 5823 5819 5816 5812 5808 5804 5800 5796 5791 5787 5782 5776 5771 5766 5761 5756 5751 5747 5742 5738 5735 5732 5729 5728 5726 5726 5726 5726 5726 5727 5730 5733 5735 5739 5743
5837 5835 5833 5831 5828 5826 5823 5820 5817 5813 5809 5806 5802 5797 5793 5789 5784 5779 5774 5768 5763 5757 5752 5746 5741 5737 5732 5728 5724 5721 5718 5716 5715 5714 5714 5714 5715 5715 5717 5719 5723 5726 5730
5831 5829 5827 5825 5822 5820 5817 5814 5810 5806 5802 5798 5794 5790 5785 5780 5776 5771 5765 5760 5754 5748 5743 5737 5732 5727 5722 5718 5714 5711 5708 5705 5704 5703 5702 5702 5702 5703 5704 5707 5710 5714 5718
5825 5823 5821 5818 5816 5813 5810 5806 5803 5799 5795 5791 5786 5782 5777 5772 5767 5762 5756 5751 5745 5739 5733 5727 5722 5717 5712 5707 5703 5700 5697 5694 5693 5691 5691 5690 5690 5691 5692 5695 5697 5701 5705
5818 5816 5814 5811 5808 5805 5802 5799 5795 5791 5787 5782 5778 5773 5768 5763 5758 5752 5747 5741 5735 5729 5723 5718 5712 5707 5701 5697 5693 5690 5686 5683 5681 5680 5680 5679 5679 5679 5680 5682 5684 5688 5692
5810 5808 5806 5803 5800 5797 5794 5790 5786 5782 5778 5773 5769 5764 5759 5754 5748 5743 5737 5731 5725 5719 5713 5707 5702 5697 5691 5687 5683 5679 5676 5673 5670 5669 5668 5668 5668 5668 5668 5670 5672 5675 5680
5803 5800 5797 5794 5791 5788 5785 5781 5777 5773 5768 5764 5759 5754 5749 5744 5738 5732 5726 5721 5715 5709 5703 5697 5691 5687 5681 5676 5673 5669 5666 5663 5660 5658 5657 5657 5657 5656 5657 5658 5660 5663 5667
5794 5791 5789 5785 5782 5779 5775 5771 5767 5763 5758 5754 5749 5744 5739 5733 5728 5722 5716 5710 5705 5699 5693 5687 5681 5676 5671 5667 5662 5659 5655 5652 5650 5648 5646 5645 5645 5645 5645 5646 5647 5650 5654
5785 5782 5779 5775 5772 5768 5765 5761 5756 5752 5747 5743 5738 5733 5727 5722 5717 5711 5705 5699 5694 5689 5683 5677 5671 5666 5661 5657 5652 5649 5645 5642 5640 5637 5636 5634 5634 5633 5633 5634 5635 5638 5642
5774 5771 5768 5764 5760 5757 5753 5749 5745 5740 5736 5731 5726 5722 5717 5711 5705 5700 5694 5689 5683 5678 5672 5666 5661 5656 5651 5647 5643 5639 5635 5632 5630 5627 5625 5624 5623 5622 5621 5622 5623 5625 5629
5763 5760 5756 5753 5749 5745 5741 5737 5733 5728 5723 5719 5714 5709 5704 5699 5694 5688 5683 5677 5672 5666 5661 5656 5651 5646 5642 5637 5633 5629 5626 5623 5620 5617 5615 5613 5612 5611 5610 5610 5611 5613 5617
5751 5747 5744 5740 5736 5732 5728 5724 5720 5715 5710 5706 5701 5696 5692 5687 5682 5676 5671 5666 5660 5655 5650 5645 5640 5636 5632 5628 5624 5620 5616 5613 5610 5608 5605 5604 5602 5600 5599 5599 5600 5602 5605
5738 5735 5730 5727 5723 5719 5715 5711 5706 5702 5697 5692 5688 5683 5678 5674 5669 5664 5658 5653 5649 5644 5640 5635 5630 5626 5622 5618 5614 5611 5607 5604 5601 5598 5596 5594 5592 5590 5589 5589 5590 5592 5595
5725 5721 5717 5712 5708 5704 5700 5696 5692 5688 5683 5678 5674 5669 5664 5660 5655 5650 5646 5641 5637 5633 5629 5625 5620 5616 5613 5609 5605 5602 5599 5595 5592 5589 5587 5585 5583 5581 5580 5580 5580 5582 5585
5711 5707 5702 5698 5694 5689 5685 5680 5676 5672 5669 5664 5659 5654 5650 5645 5641 5637 5633 5629 5625 5621 5618 5614 5611 5607 5604 5600 5596 5593 5590 5586 5583 5581 5578 5576 5574 5572 5571 5571 5571 5573 5576
5695 5691 5687 5682 5678 5673 5669 5664 5660 5655 5652 5648 5644 5640 5635 5631 5627 5624 5620 5617 5613 5610 5607 5604 5601 5597 5594 5591 5588 5585 5582 5578 5575 5573 5570 5568 5566 5564 5563 5563 5563 5565 5568
5678 5674 5669 5665 5660 5656 5651 5647 5642 5638 5634 5630 5627 5624 5620 5616 5613 5610 5607 5604 5601 5599 5597 5594 5591 5588 5585 5582 5579 5576 5573 5570 5567 5565 5563 5560 5558 5557 5556 5555 5556 5558 5561
5661 5656 5651 5647 5642 5637 5632 5628 5623 5619 5616 5612 5609 5606 5603 5600 5598 5596 5594 5592 5590 5588 5586 5584 5582 5579 5576 5574 5571 5568 5566 5563 5560 5557 5555 5553 5552 5550 5549 5549 5550 5552 5555
5643 5638 5633 5628 5623 5618 5613 5608 5604 5600 5597 5594 5592 5589 5586 5584 5583 5582 5581 5580 5578 5577 5576 5574 5572 5570 5568 5566 5563 5561 5558 5555 5553 5550 5548 5547 5545 5544 5544 5544 5545 5547 5549
5624 5619 5614 5609 5603 5598 5594 5589 5585 5581 5579 5576 5574 5572 5571 5570 5569 5569 5568 5568 5568 5567 5566 5565 5564 5562 5560 5558 5555 5553 5550 5548 5546 5544 5542 5540 5539 5539 5538 5539 5540 5542 5545
5605 5600 5594 5589 5584 5579 5575 5570 5566 5563 5561 5559 5558 5557 5557 5556 5556 5557 5557 5557 5558 5557 5557 5556 5555 5554 5552 5550 5548 5546 5543 5541 5539 5537 5536 5535 5534 5533 5534 5534 5536 5538 5541
5586 5581 5575 5570 5565 5561 5557 5553 5550 5547 5545 5544 5544 5544 5544 5544 5545 5546 5547 5548 5549 5549 5549 5548 5547 5546 5544 5543 5541 5539 5536 5534 5532 5531 5530 5529 5528 5529 5529 5530 5532 5534 5537
5569 5564 5559 5554 5550 5546 5542 5539 5536 5534 5533 5532 5532 5532 5533 5535 5536 5538 5539 5540 5541 5542 5542 5541 5540 5539 5537 5536 5534 5532 5530 5528 5526 5525 5524 5523 5523 5524 5525 5526 5528 5531 5534